Regional Weather Roundup
Issued by NWS

Home | Current Version | Previous Version | Text Only | Print | Product List | Glossary On
Versions: 1 2 3 4 5 6 7 8 9 10 11 12 13 14 15 16 17 18 19 20 21 22 23 24 25 26 27 28 29 30 31 32 33 34 35 36 37 38 39 40 41 42 43 44 45 46 47 48 49 50
000
ASUS42 KTBW 220410
RWRFL
FLORIDA REGIONAL WEATHER ROUNDUP
NATIONAL WEATHER SERVICE TAMPA BAY RUSKIN FL
1200 AM EDT WED OCT 22 2014

NOTE: "FAIR" INDICATES FEW OR NO CLOUDS BELOW 12,000 FEET WITH NO
SIGNIFICANT WEATHER AND/OR OBSTRUCTIONS TO VISIBILITY.


FLZ001>010-012>015-112-114-115-220500-
PANHANDLE FLORIDA

CITY           SKY/WX    TMP DP  RH WIND       PRES   REMARKS
PENSACOLA      CLEAR     63  54  72 N5        30.02R
PENSACOLA NAS  CLEAR     57  56  96 CALM      30.02R
MILTON NAS     CLEAR     58  53  84 CALM      30.03R
CRESTVIEW      CLEAR     54  52  93 CALM      30.04R
DUKE FIELD     CLEAR     56  53  91 CALM      30.02R
VALPARAISO     CLEAR     62  53  72 N3        30.02R
MARY ESTHER    CLEAR     60  52  75 N5        30.01S
PANAMA CITY    FAIR      58  54  86 CALM      30.01R
TYNDALL AFB    CLEAR     60  57  89 CALM      30.01S
APALACHICOLA   CLEAR     67  59  75 CALM      29.99F

STATION/POSITION SKY/WX   TEMP    WIND        PRES    WAVE   SWELL
                          AIR SEA DIR/SP/G            HT/PER HT/PER
                          (F)     (DEG/KT/KT) (MB)    (FT/S) (FT/S)
30.1N   87.6W              75 78   30/ 12/ 16 1016.1R   1/ 5
29.2N   88.2W              75 79   30/ 10/ 12 1016.8F   2/ 4
28.8N   86.0W              76 81   50/  6/ 10 1015.8F   1/ 3
PANAMA CITY BEAC           68 78  360/  4/  5 1016.1F
CAPE SAN BLAS    NOT AVBL
TOWER C                    75     340/ 11/ 12 1015.4F
28.5N   84.5W              76 81  360/  6/  8 1015.1F   1/ 4

$$
FLZ011-016>038-118-127-128-134-139-239-220500-
NORTH FLORIDA

CITY           SKY/WX    TMP DP  RH WIND       PRES   REMARKS
MARIANNA       LGT RAIN  58  57  97 CALM      30.01S
TALLAHASSEE    NOT AVBL
PERRY          CLEAR     59  57  94 CALM      30.00S
CROSS CITY       N/A     65  62  90 NW6       29.98S
LAKE CITY      FAIR      59  59 100 CALM      29.99R
GAINESVILLE    CLEAR     62  61  96 CALM      29.98R
MAYPORT NAS    PTCLDY    70  66  87 W3        29.96F
JACKSONVILLE   CLEAR     62  62 100 CALM      29.96F
JAX NAS        PTCLDY    73  66  78 W5        29.97S
JAX CRAIG      CLEAR     64  63  96 CALM      29.97S
JAX CECIL      CLEAR     61  59  94 CALM      29.97S
FERNANDINA BEA FAIR      70  66  88 CALM      29.95F
ST AUGUSTINE   CLEAR     68  66  93 W5        29.97S

STATION/POSITION SKY/WX   TEMP    WIND        PRES    WAVE   SWELL
                          AIR SEA DIR/SP/G            HT/PER HT/PER
                          (F)     (DEG/KT/KT) (MB)    (FT/S) (FT/S)
SHELL POINT                69     290/  3/  4   N/A
KEATON BEACH               70     340/  3/  4 1015.7F
CEDAR KEY                  72     340/  3/  5 1015.5R
FERNANDINA                 71 76  320/  3/  3 1014.2F
30.7N   81.3W                 77                N/A     1/10
MAYPORT                    72 77  220/  2/  2   N/A
31.4N   80.9W              75 76  300/ 14/ 16 1014.3F   1/ 9   2/ 9
ST AUGUSTINE               70     240/  6/  6 1015.1F

$$
FLZ040-043>046-052-053-057-058-063-144-220500-
INTERIOR CENTRAL FLORIDA

CITY           SKY/WX    TMP DP  RH WIND       PRES   REMARKS
OCALA          CLEAR     64  63  94 N3        29.98S
THE VILLAGES     N/A     66  64  94 E10       29.88R
LEESBURG       MOCLDY    69  67  93 N3        29.97F
ORLANDO EXEC   CLOUDY    72  69  90 SE3       29.95F
ORLANDO INTL   MOCLDY    71  70  96 S3        29.96S
WINTER HAVEN   CLOUDY    72  69  90 CALM      29.97F
LAKELAND       CLOUDY    68  66  94 NW3       29.97F
BARTOW         FAIR      68  68 100 SE7       29.97S
OKEECHOBEE       N/A     66  66 100 MISG        N/A

$$
FLZ041-047-054-059-064-141-147-220500-
EAST CENTRAL FLORIDA

CITY           SKY/WX    TMP DP  RH WIND       PRES   REMARKS
DAYTONA BEACH  MOCLDY    69  68  96 CALM      29.96S
DELAND         MOCLDY    66  66 100 N3        29.97F
JFK SPACE CTR  CLOUDY    69  68  96 SW1       29.95F FOG
CAPE CANAVERAL CLOUDY    71  69  90 SW2       29.95S
PATRICK AFB    CLOUDY    72  70  92 SW7       29.96S
MELBOURNE      CLOUDY    72  68  87 SW3       29.96S
VERO BEACH     CLOUDY    68  65  90 SW3       29.96F
FT PIERCE      CLOUDY    69  66  90 CALM      29.96F
STUART         CLOUDY    70  68  94 W5        29.96F

STATION/POSITION SKY/WX   TEMP    WIND        PRES    WAVE   SWELL
                          AIR SEA DIR/SP/G            HT/PER HT/PER
                          (F)     (DEG/KT/KT) (MB)    (FT/S) (FT/S)
28.5N   80.2W              77 83  240/  8/ 10 1014.7R
28.9N   78.5W              78 80  230/  6/  8 1014.3F   2/11   2/11
TRIDENT PIER               74 80  210/  5/  7 1014.0S
28.4N   80.5W                 80                N/A     2/ 4
27.6N   80.2W                 80                N/A     2/13   2/13

$$
FLZ050-056-061-142-242-148-248-149-249-151-251-155-255-
160-260-220500-
WEST CENTRAL FLORIDA

CITY           SKY/WX    TMP DP  RH WIND       PRES   REMARKS
CRYSTAL RIVER  FAIR      64  63  94 CALM      29.98S
INVERNESS      FAIR      64  64 100 CALM      29.98S FOG
BROOKSVILLE    MOCLDY    66  65  96 CALM      29.98S FOG
ZEPHYRHILLS      N/A     64  64 100 CALM      29.97F
CLEARWATER     CLOUDY    74  67  78 N5        29.96F
TAMPA INTL     CLOUDY    72  65  78 N5        29.97S
TAMPA EXEC     CLOUDY    68  64  88 CALM      29.97S FOG
PLANT CITY     CLOUDY    70 N/A N/A CALM      29.99S
MACDILL AFB    CLOUDY    70  66  86 NE6       29.96S
ST PETERSBURG  CLOUDY    75  67  76 N6        29.94F
SARASOTA       CLOUDY    72  68  87 E5        29.94F
VENICE           N/A     75  72  88 MISG      29.96F

STATION/POSITION SKY/WX   TEMP    WIND        PRES    WAVE   SWELL
                          AIR SEA DIR/SP/G            HT/PER HT/PER
                          (F)     (DEG/KT/KT) (MB)    (FT/S) (FT/S)
CEDAR KEY                  72     340/  3/  5 1015.5R
28.5N   84.5W              76 81  360/  6/  8 1015.1F   1/ 4
27.3N   84.3W                 81                N/A     1/ 3
CLEARWATER BEACH NOT AVBL
MIDDLE TAMPA BAY           78      30/  7/  9 1014.6F
VENICE                     76 81  110/  3/  3 1013.9F

$$
FLZ066-069-070-075>078-162-262-165-265-220500-
SOUTHWEST FLORIDA AND KEYS

CITY           SKY/WX    TMP DP  RH WIND       PRES   REMARKS
PUNTA GORDA    CLOUDY    74  72  93 CALM      29.97F
FT MYERS       CLOUDY    74  71  91 CALM      29.95S
SOUTHWEST INTL CLOUDY    73  70  90 SE5       29.96S
NAPLES         CLOUDY    75  72  90 SE5       29.95F
MARATHON       CLOUDY    76  75  97 NE5       29.95F
KEY WEST NAS   CLOUDY    76  72  87 CALM      29.94F
KEY WEST INTL  CLOUDY    78  74  87 S5        29.94F

STATION/POSITION SKY/WX   TEMP    WIND        PRES    WAVE   SWELL
                          AIR SEA DIR/SP/G            HT/PER HT/PER
                          (F)     (DEG/KT/KT) (MB)    (FT/S) (FT/S)
VENICE                     76 81  110/  3/  3 1013.9F
NAPLES                     74 83  140/  5/  6 1014.8F
26.0N   85.6W              80 83   70/ 10/ 14 1014.2R   2/ 6   2/ 6
DRY TORTUGAS               80     110/ 10/ 12 1014.0F
NW FL BAY                  77     110/  7/  8 1015.1F
SAND KEY                   78      70/  3/  4 1013.6F
SOMBRERO KEY               78      70/  8/  9 1014.6F
LONG KEY                   77 80   70/  6/  7 1015.8F
MOLASSES REEF              80 83  120/  5/  6 1014.3F

$$
FLZ067-068-071>074-168-172>174-220500-
SOUTHEAST FLORIDA

CITY           SKY/WX    TMP DP  RH WIND       PRES   REMARKS
W PALM BEACH   CLOUDY    71  71 100 CALM      29.94F
FT LAUDER-EXEC CLOUDY    74  69  85 CALM      29.95S
FT LAUDERDALE  CLOUDY    76  70  82 S6        29.95S
POMPANO BEACH  CLOUDY    75  71  87 CALM      29.95F
PEMBROKE PINES CLOUDY    74  69  85 SE3       29.96F
OPA LOCKA      CLOUDY    75  70  84 CALM      29.96S
MIAMI          CLOUDY    76  71  85 E3        29.96S
WEST KENDALL   CLOUDY    76  72  87 CALM      29.96S
HOMESTEAD      CLOUDY    73  71  94 CALM      29.96F

STATION/POSITION SKY/WX   TEMP    WIND        PRES    WAVE   SWELL
                          AIR SEA DIR/SP/G            HT/PER HT/PER
                          (F)     (DEG/KT/KT) (MB)    (FT/S) (FT/S)
PORT EVERGLADES            76     220/  3/  3 1014.1
VIRGINIA KEY               78 81  130/  3/  4 1014.7F
LAKE WORTH                 73 82  270/  3/  4 1013.9F
FOWEY ROCKS                79 82  130/  7/  8 1014.4F
SETTLEMENT POINT           76     100/  4/  5 1014.7F

$$




USA.gov is the U.S. government's official web portal to all federal, state and local government web resources and services.